{"data":{"norad_id":43809,"intl_designator":"2018-099BD","name":"CENTAURI-1","alt_names":[],"object_type":"PAYLOAD","status":"ACTIVE","operator":null,"country":"AUS","launch_date":"2018-12-03","launch_site_code":"AFWTR","launch_vehicle":null,"mission":null,"orbit_class":"UNKNOWN","rcs_meters":null,"size_class":null,"mass_kg":null,"dimensions":null,"purposes":[],"wikipedia_slug":null,"has_3d_model":false,"image_url":null,"decayed_at":null,"tle_current":{"epoch":"2026-05-25T01:00:25.241184Z","epoch_age_seconds":81533,"freshness":"FRESH","line1":"1 43809U 18099BD  26145.04195881  .00004893  00000+0  25681-3 0  9993","line2":"2 43809  97.4236 197.2607 0015382  53.7830 306.4823 15.16086678408998","mean_motion":15.16086678,"eccentricity":0.0015382,"inclination_deg":97.4236,"raan_deg":197.2607,"arg_perigee_deg":53.783,"mean_anomaly_deg":306.4823,"bstar":0.00025681,"rev_number":40899,"period_min":94.981376783788,"perigee_km":507.074321338,"apogee_km":528.28861727698,"semimajor_km":6895.8184693075,"source":"CELESTRAK","updated_at":"2026-05-25T13:37:55.900854Z"}}}